Showing default

SECOR 4 (EGRS 4), 1315

Orbit data source: Space-Track

SECOR 4 (EGRS 4), 1315 is an American payload satellite in LEO that was launched on Sat, 03 Apr 1965 UTC via an ATLAS SLV-3 AGENA D launch vehicle from the Air Force Western Test Range (AFWTR). Payload-class satellites include a variety of spacecraft equipped with specific instruments for various scientific and technological missions. These include communications satellites like Starlink; space stations such as the ISS; scientific satellites like the Hubble; Earth observation satellites from companies like Planet Labs, Umbra, and HawkEye 360; GPS; miniature CubeSats for education and research; and military/defense satellites.

Loading next visibility...
Identifier
1315, 1965-027B
Orbit
LEO
Country
Flag of USUS
Related business
Manufacturer
ITT
Mission
Spacecraft
Bus & Motor
SECOR, Unknown motor
Mass
18 kg wet, 18 kg dry
Launch date (UTC)
1965-04-03 (61 years ago)
Launch vehicle
ATLAS SLV-3 AGENA D
Launch site
Air Force Western Test Range (AFWTR)
Object type
Payload
Rocket body
Debris
Shape & HBR
Unknown
Radar Cross Section
Medium (>0.1 m² and <1 m²)

Expand to show TLE details & history
Last TLE update: 7 hours ago

TLE from 7 hours ago
0 SECOR 4 (EGRS 4)
1  1315U 65027B   25308.16617236  .00000057  00000-0  18153-3 0  9993
2  1315  90.2495  10.4896 0032746  69.3366 346.1266 12.92661295857858
Epoch: 2025-11-04T03:59Z
TLE epoch observation values (Epoch: 2025-11-04T03:59:17.291Z)
Latitude
55.46326°
Longitude
-93.35025°
Altitude
1,275.856 km
Speed
7.234 km/s
True Right ascension
00h 40m 30s
True Declination
55° 18' 48"
Sunlit
Object was in full shadow at epoch
Visualization orbit readout
Latitude
Unknown
Longitude
Unknown
Altitude
Unknown
Speed
Unknown
Apparent Right ascension
Unknown
Apparent Declination
Unknown
Sunlit
N/A
Visualization observer readout
Local Sidereal Time
06:41:24
Azimuth
Unknown
Elevation
Unknown
Doppler factor
Unknown
Orbital elements
Apogee altitude
1,313.218 km
Perigee altitude
1,263.01 km
Semi-major axis
7,666.251 km
Eccentricity
0.00327
Inclination
90.2495°
RAAN
10.4896°
Arg. of periapsis
69.3366°
True anomaly
346.03627°
Mean anomaly
346.1266°
Eccentric anomaly
346.08147°
Mean motion
3.23347 °/min
Orbital period
111.34 mins
BSTAR
0.00018153
Loading maneuver chart data...
Computing Atmospheric mass density...
Loading historical data...
Loading historical data...
Loading historical data...
Loading historical data...
Loading historical data...
Loading historical data...
Loading historical data...

Documentation

Showing up to 5 results
|